Wind_Speed
7 9 10 11 12 12 14 15 16 17 19 20 22 23 22 22 21 22 24 25 26 27 28 29 29 30 30 30 29 30 30 31 32 33 35 34 32 35 39 41 43 44 44 46 47 49 51 52 53 52 52 54 57 60 60 60 60 61 59 57 57 59 60 59 59 62 60 55 52 49 45 41 42 45 48 49 51 51 48 44 42 40 38 36 36
10 11 11 11 12 13 14 15 16 18 20 22 23 23 23 22 22 22 23 23 25 26 28 29 30 31 31 31 31 31 31 31 31 32 34 34 33 33 35 39 42 43 44 46 47 48 50 52 54 53 52 56 59 60 61 61 61 60 59 58 58 59 60 60 60 61 60 57 56 54 51 46 44 45 47 49 50 50 48 45 43 42 39 37 37
14 13 13 13 14 14 15 16 18 19 20 21 22 22 23 23 23 24 23 23 24 25 27 28 30 31 32 32 32 32 32 32 31 31 32 33 34 33 34 37 40 42 44 45 46 48 51 54 55 55 56 59 61 60 60 61 61 60 60 60 59 59 60 61 61 61 59 57 57 55 51 48 46 44 45 47 47 47 47 46 45 43 40 38 38
14 15 16 16 15 16 16 17 18 20 20 21 21 21 22 23 24 25 24 24 24 24 25 26 28 30 32 32 33 33 33 32 32 32 31 31 33 34 36 38 41 43 45 47 48 49 52 54 54 54 56 58 59 58 58 59 60 60 59 61 62 62 61 61 62 62 60 57 57 54 50 47 44 41 41 45 45 45 46 48 46 43 40 39 39
14 16 17 16 16 16 16 16 17 18 19 20 21 21 22 22 23 24 24 24 24 24 25 25 27 28 30 30 31 32 32 32 32 33 32 31 32 34 36 39 43 45 47 49 50 50 52 53 53 53 54 55 55 56 57 58 59 59 59 60 62 62 62 60 60 60 59 58 55 51 47 43 40 38 38 42 45 45 46 47 45 42 40 40 39
16 17 17 16 16 15 15 16 16 17 18 19 20 20 21 21 22 22 23 24 24 24 24 25 26 27 27 28 29 30 31 31 32 33 33 33 33 33 35 38 42 46 48 50 50 51 51 52 52 51 51 53 55 56 58 58 59 60 60 60 60 61 62 61 60 59 58 57 53 49 45 42 41 39 39 42 46 48 47 47 44 42 41 40 38
17 16 17 16 15 14 15 15 16 16 17 18 20 21 22 22 23 23 24 25 25 25 25 25 26 26 27 28 29 29 30 30 31 32 32 34 34 35 35 37 39 43 47 50 51 52 53 53 53 52 52 55 57 57 57 58 59 60 60 59 59 60 61 61 60 59 58 58 56 53 50 47 45 44 43 44 47 47 47 47 46 44 42 40 37
14 14 14 14 13 13 13 14 15 16 18 19 20 22 23 24 25 26 26 27 28 27 27 27 27 27 28 29 29 30 30 31 31 32 32 33 34 36 37 37 38 40 43 47 50 52 53 54 54 55 55 57 57 56 56 56 57 59 60 59 58 59 60 60 59 59 59 58 59 59 57 54 50 47 45 47 50 50 49 47 45 43 40 38 36
11 10 11 11 11 12 13 14 16 17 18 19 19 21 22 23 24 25 25 26 27 27 27 27 28 28 28 28 29 30 31 32 32 32 32 33 34 35 37 38 39 40 41 44 47 51 53 54 55 55 56 57 57 56 55 55 55 57 58 58 58 58 59 59 59 59 58 58 58 58 57 56 53 51 50 52 56 57 53 48 43 39 37 35 34
10 9 10 11 12 13 14 15 16 17 18 19 19 20 21 21 22 23 23 24 24 25 26 26 27 27 27 28 28 29 30 30 30 31 32 32 33 35 36 38 40 41 42 43 45 47 51 54 57 57 56 57 56 56 56 55 54 55 56 57 58 59 59 60 60 59 57 57 58 57 58 59 59 58 55 55 57 57 54 49 44 39 36 34 34
10 10 11 12 12 14 15 16 17 18 19 20 21 22 22 22 23 23 24 24 25 26 27 28 28 29 29 30 30 30 30 29 29 29 30 31 33 34 36 38 40 42 44 45 45 46 46 50 53 56 57 58 57 57 56 55 55 55 55 57 59 61 61 60 60 58 56 56 57 57 59 61 62 61 57 55 56 56 53 48 42 37 35 35 35
10 11 13 13 15 16 17 18 19 19 21 22 23 23 24 24 24 25 26 26 27 28 29 30 30 31 32 33 33 34 33 31 30 29 29 30 31 33 35 37 39 42 44 45 46 47 46 47 48 51 54 56 57 57 57 56 55 55 56 57 59 60 61 60 59 58 58 57 56 58 60 60 60 59 57 56 57 55 49 43 38 35 33 34 35
12 14 15 16 18 19 20 21 21 21 22 23 24 24 25 26 26 27 28 28 29 30 30 31 32 32 33 34 35 36 35 34 33 32 32 31 30 31 34 36 38 41 43 44 46 47 47 47 48 49 50 52 54 55 56 56 55 55 55 56 57 58 59 59 59 59 58 57 56 58 60 58 58 58 57 56 55 51 44 38 34 32 32 33 35
14 16 18 20 21 22 23 24 24 24 24 24 25 26 26 27 28 29 30 31 32 33 33 34 35 35 35 36 37 38 38 37 37 36 35 34 32 32 33 35 37 40 41 43 44 46 46 47 48 49 49 49 51 53 54 54 55 54 54 54 55 56 56 58 59 58 57 56 56 58 59 59 59 58 56 53 51 46 40 37 34 33 34 35 34
16 17 19 21 22 24 25 25 25 25 26 26 27 28 29 30 30 31 33 33 34 36 36 37 38 38 39 39 41 42 42 40 40 39 39 38 36 34 35 36 38 40 41 42 43 45 45 45 47 47 47 47 48 49 51 52 53 53 53 53 53 54 55 56 57 57 56 56 56 56 56 56 56 53 50 48 46 42 39 37 36 36 36 35 33
18 19 19 20 21 22 23 25 26 27 28 29 29 30 31 32 33 34 35 36 37 38 39 39 40 41 41 42 43 45 45 43 42 41 41 40 38 37 38 38 39 41 42 42 42 44 44 44 45 46 46 45 45 45 47 48 49 51 52 52 52 53 54 54 54 54 54 54 55 54 53 53 52 48 46 45 45 44 41 38 36 35 34 34 33
19 19 20 20 20 21 22 24 25 26 28 29 30 30 31 32 34 35 37 38 39 39 40 41 42 43 43 44 45 46 47 45 43 43 42 41 40 39 39 39 40 42 42 42 42 43 43 43 43 44 45 44 43 43 44 46 48 50 50 51 51 52 53 52 51 52 52 52 53 54 54 52 50 48 47 47 47 46 44 41 37 34 33 35 36
19 19 20 20 21 22 22 24 25 26 26 27 29 30 31 33 34 35 37 38 39 40 41 42 43 43 43 44 44 46 47 46 44 43 42 41 39 39 39 39 41 43 43 43 43 43 43 43 43 43 44 43 41 41 42 45 48 49 49 49 50 52 52 50 50 51 50 49 50 52 53 51 49 48 47 47 47 46 45 43 40 37 37 39 39
19 20 20 21 21 22 23 24 25 26 27 28 29 31 32 33 34 35 37 38 39 40 41 42 43 43 43 43 44 44 45 45 44 44 43 41 39 38 37 38 41 43 43 44 44 44 43 42 42 42 42 41 39 39 40 43 46 47 48 48 50 51 50 48 48 49 48 48 50 52 53 51 48 44 45 49 49 45 41 40 39 37 38 40 40
20 21 22 22 22 23 23 24 26 27 28 30 31 32 33 34 35 36 37 39 40 41 41 42 43 43 43 43 43 44 44 44 43 43 42 41 39 37 36 37 40 41 41 42 44 44 43 42 42 41 41 40 39 37 38 40 42 44 45 47 50 49 46 45 47 47 47 48 50 52 53 51 46 43 46 50 47 42 39 37 35 36 38 39 39
22 23 24 24 24 25 25 27 28 29 30 32 33 34 35 35 37 38 39 40 41 42 42 42 42 43 43 43 44 43 42 42 41 41 42 41 39 36 35 37 37 37 38 40 42 42 42 41 41 40 40 39 38 38 38 39 40 42 44 46 46 44 43 44 45 44 45 47 48 50 52 49 45 45 48 48 44 41 38 34 33 35 37 35 35
25 25 26 26 27 27 28 29 30 31 32 33 35 36 37 37 38 39 40 41 42 43 44 43 43 43 44 43 43 43 42 41 41 41 41 40 38 35 34 35 33 32 35 39 41 41 41 41 40 40 40 40 39 39 39 39 39 41 43 43 42 40 40 42 42 42 44 45 46 49 50 47 47 47 46 44 43 38 31 29 32 35 33 31 30
27 28 29 29 29 29 30 31 31 33 34 35 37 38 39 39 40 40 41 43 44 45 45 45 45 45 45 45 44 43 41 40 40 40 40 39 38 35 33 33 30 28 32 38 40 40 39 39 39 39 39 40 40 40 40 39 39 40 40 39 38 38 37 39 41 42 43 44 46 49 49 49 50 49 44 42 38 31 26 28 32 31 29 28 27
31 32 32 32 33 33 33 33 34 35 36 37 38 40 40 41 42 42 43 44 45 46 47 47 48 48 48 47 46 44 42 41 40 40 39 38 36 35 33 32 30 28 30 35 38 37 38 37 37 38 39 39 39 39 39 39 38 37 36 34 35 36 36 38 41 42 42 44 47 49 51 52 50 46 42 38 31 26 27 30 30 27 26 25 23
35 36 36 37 37 37 37 38 38 38 39 40 41 42 42 43 43 44 44 45 45 46 47 47 49 49 50 49 48 46 44 42 42 41 39 38 36 34 33 31 29 28 30 33 35 35 36 36 36 38 40 39 38 38 38 38 36 33 32 31 33 35 36 39 42 42 43 46 48 50 52 50 45 41 39 34 27 25 29 29 28 27 26 24 22
38 39 40 41 41 41 42 43 43 43 43 43 44 44 44 45 45 45 45 45 46 46 46 47 48 49 50 50 49 47 45 43 42 41 39 37 35 32 30 30 29 28 30 33 34 35 35 35 35 37 38 37 36 37 37 35 33 31 30 30 32 34 36 39 41 42 44 46 49 52 52 46 40 38 36 28 23 25 28 28 28 28 27 24 22
39 40 41 42 43 43 44 45 46 46 46 46 45 45 45 45 46 46 46 46 46 46 46 47 48 49 49 49 48 47 46 45 44 41 38 35 33 30 29 29 30 30 32 34 35 35 36 35 34 34 34 35 35 35 35 32 29 27 27 29 32 33 35 38 41 42 44 45 49 52 50 44 39 36 30 23 21 23 25 26 27 27 25 23 21
40 41 42 43 44 44 45 46 46 47 47 46 46 46 45 45 45 46 46 46 47 47 46 46 47 48 48 47 47 47 47 47 45 41 37 34 32 30 30 30 31 31 32 33 34 35 35 35 33 32 32 33 34 34 33 31 28 26 25 28 32 33 34 36 40 41 42 45 48 51 49 42 36 31 25 21 20 21 22 24 25 24 22 20 20
43 44 44 44 45 45 45 46 46 46 47 47 47 46 45 44 45 46 45 45 46 47 46 46 46 46 46 46 45 45 47 48 44 40 37 35 32 31 31 31 32 33 33 32 32 34 34 33 32 31 31 32 33 33 32 30 28 26 25 27 30 34 35 36 39 41 42 44 48 49 46 38 32 27 23 19 16 16 18 21 22 22 21 20 21
45 46 46 46 46 46 46 46 46 46 46 47 48 48 47 45 45 46 46 45 45 47 47 46 45 43 44 45 44 43 45 46 44 40 37 35 33 32 32 32 32 33 33 31 31 32 32 31 30 29 29 30 31 31 30 29 27 26 26 26 30 34 36 36 39 41 42 43 45 45 40 34 29 27 23 18 14 15 17 19 20 21 21 21 22
47 47 48 48 48 47 47 47 47 47 47 47 48 49 49 48 46 46 46 46 45 46 47 47 44 41 41 43 42 42 42 42 42 40 37 35 34 33 32 32 32 32 32 30 29 30 30 29 28 27 27 28 29 28 28 27 26 26 26 26 30 33 34 35 37 40 40 40 40 39 35 30 28 25 22 19 18 19 18 19 20 21 21 21 22
46 46 47 47 47 47 47 47 47 47 48 48 48 48 50 51 50 47 46 45 45 45 46 47 45 41 38 38 38 39 39 39 39 38 37 35 34 32 31 31 31 31 29 26 27 28 27 25 26 26 26 26 27 26 26 25 26 27 26 27 30 31 32 33 35 36 38 38 38 34 29 26 24 23 21 20 20 19 19 19 20 21 21 22 23
43 44 45 45 45 45 45 45 46 46 47 48 49 49 49 50 51 50 47 45 44 44 44 45 44 41 37 35 34 35 36 36 36 36 35 34 32 30 30 29 29 28 25 23 25 26 24 23 23 24 24 25 25 24 24 24 26 27 26 28 30 29 28 30 33 34 35 35 32 28 25 23 21 20 19 19 19 19 19 19 20 21 22 23 24
43 43 44 44 45 45 45 45 45 45 46 47 48 48 49 48 48 49 48 47 46 45 44 44 43 41 37 33 31 32 33 34 34 34 33 31 29 27 27 27 27 25 22 21 24 24 22 22 23 22 23 23 23 23 23 23 25 26 26 28 30 29 27 28 31 32 31 28 26 24 22 21 20 20 20 20 20 20 20 19 20 21 23 24 25
44 44 44 44 44 45 45 45 44 44 45 46 46 47 48 47 46 45 45 44 45 45 45 44 42 40 36 33 31 30 31 31 31 30 29 27 25 23 23 24 24 22 19 20 22 21 20 20 21 21 21 21 21 21 22 22 23 25 25 27 30 31 31 31 32 30 27 25 24 24 23 22 22 22 23 23 22 22 21 21 21 22 23 24 25
44 45 45 44 43 43 44 44 43 43 43 45 46 46 46 44 43 42 42 42 42 43 44 43 41 38 35 32 30 29 28 27 27 25 24 22 20 20 20 21 21 19 17 18 20 21 19 19 19 19 19 19 19 19 20 21 22 24 25 26 27 30 32 34 36 35 32 29 27 25 24 24 24 24 25 24 23 22 21 21 21 22 23 24 24
45 45 45 45 44 43 43 43 43 42 42 43 44 44 43 42 41 40 40 41 41 41 41 41 39 36 33 30 27 26 25 24 22 20 18 17 17 17 18 19 18 17 16 17 19 20 19 18 18 17 17 16 16 16 17 19 21 22 23 24 25 26 27 29 32 34 36 35 34 31 29 27 27 27 26 24 23 22 21 21 21 21 22 23 23
44 44 44 44 43 42 42 42 42 42 41 41 42 41 40 40 39 37 38 39 39 38 37 37 35 32 30 27 24 23 23 21 19 16 14 13 14 15 16 16 16 16 16 17 17 18 18 18 17 16 15 15 14 13 13 15 17 19 20 21 21 22 22 23 24 26 29 32 33 33 31 30 29 27 25 23 22 22 22 21 21 22 23 23 23
42 42 41 40 40 40 40 40 41 40 39 39 39 39 38 38 37 36 36 37 37 36 35 33 31 29 27 24 22 20 20 19 16 14 12 11 12 13 14 15 15 15 16 16 16 16 16 16 15 15 14 13 13 13 13 13 14 15 17 18 19 20 21 22 22 23 24 26 28 28 27 26 25 23 22 21 21 21 21 22 22 23 23 23 23
40 40 39 38 37 37 37 37 38 38 37 37 37 37 37 37 35 34 33 34 35 34 33 31 29 26 24 22 20 18 17 16 14 11 10 10 10 11 13 14 14 15 15 15 15 15 15 14 14 13 13 12 12 12 12 12 13 14 15 16 17 19 20 20 21 22 22 23 22 22 21 21 20 20 20 21 21 21 21 21 22 23 23 23 22
37 37 37 36 35 36 36 36 36 35 35 35 36 35 35 34 33 31 31 31 33 32 31 28 26 23 21 19 17 16 15 14 11 10 9 8 8 10 12 13 13 14 14 14 14 14 14 14 13 12 11 11 10 9 9 9 10 11 12 13 14 15 16 16 17 17 17 17 18 18 19 19 19 19 20 20 20 21 21 21 22 22 22 22 21
35 35 36 35 34 34 34 35 34 34 33 34 34 33 32 31 30 29 28 29 30 29 27 24 22 20 18 16 14 14 14 12 9 7 7 6 6 7 9 10 11 11 11 12 12 12 12 12 11 10 9 8 8 7 7 7 8 8 9 10 11 12 13 14 14 14 15 16 16 17 18 18 18 18 19 20 20 20 21 21 21 21 21 21 21
33 34 34 33 32 32 32 32 33 33 32 33 33 31 29 27 26 25 25 25 26 25 23 20 17 16 14 12 13 13 12 9 7 5 3 3 4 5 6 7 8 8 8 8 8 8 8 8 8 7 7 7 7 7 7 8 8 9 9 10 11 12 13 13 14 14 15 15 16 17 17 17 17 18 19 19 20 20 20 20 20 20 20 20 19
31 32 31 31 30 30 29 30 31 31 31 31 30 28 26 24 24 23 22 22 22 21 19 15 12 11 10 10 12 12 10 6 4 3 1 1 2 2 3 4 4 5 6 6 6 6 6 6 6 6 6 6 6 6 7 8 8 9 10 10 10 11 12 12 12 13 13 14 15 16 16 17 17 18 19 19 19 20 20 20 19 19 19 19 19
31 31 31 31 30 29 29 29 29 30 30 29 28 26 24 23 23 22 21 20 19 17 15 12 9 8 8 8 9 9 7 5 3 2 2 2 2 2 2 3 3 4 4 4 5 5 6 6 7 7 6 6 6 6 7 7 8 8 9 9 10 10 10 11 11 11 12 13 14 15 16 17 17 18 18 18 19 19 19 19 19 19 19 19 19
30 31 31 31 30 29 28 28 28 28 28 27 27 26 24 23 21 20 18 17 15 13 12 10 8 7 7 7 7 6 5 4 3 2 2 2 2 3 3 4 4 5 5 5 5 6 6 7 7 7 7 7 7 6 7 7 7 8 9 9 9 10 10 10 11 12 12 13 13 14 15 16 16 17 17 17 17 17 17 17 17 17 17 17 16
29 30 30 30 29 28 27 25 25 25 25 25 24 24 22 21 19 16 14 13 12 11 10 8 7 7 6 5 5 5 4 3 3 3 3 3 3 4 4 4 5 5 5 5 4 4 5 5 6 6 6 6 6 6 6 6 6 6 7 7 8 8 8 9 9 10 11 11 12 12 13 13 14 15 16 17 17 17 17 17 17 16 16 16 16
28 28 28 28 27 26 25 25 24 23 23 23 22 21 20 18 17 15 13 11 10 9 8 7 6 6 5 4 4 4 3 3 3 3 3 4 4 4 4 5 5 5 5 4 3 3 4 4 4 4 4 5 4 4 4 4 5 5 6 7 7 8 8 8 9 9 9 10 10 11 11 12 13 13 14 14 15 16 17 17 17 17 17 17 18
26 26 26 26 25 25 24 24 23 22 22 21 21 20 19 17 16 14 13 11 10 8 7 6 5 4 3 2 2 2 3 3 4 4 4 5 5 5 5 5 5 5 5 4 4 4 5 5 5 5 5 5 5 5 5 5 6 6 7 8 9 9 10 10 11 11 11 12 12 12 13 14 14 15 16 16 16 17 17 18 19 19 19 20 20
25 25 24 24 24 23 23 22 21 21 20 20 19 19 18 17 16 14 13 12 10 9 8 7 6 5 5 4 3 3 3 3 3 3 4 4 4 4 5 5 5 5 5 5 6 6 6 6 6 6 6 6 6 7 7 8 8 9 10 11 11 12 13 13 14 14 15 15 15 15 15 15 15 16 17 17 18 18 19 19 20 21 21 22 23
24 23 23 22 22 22 22 22 21 21 21 20 20 19 18 17 16 15 14 13 12 10 9 8 7 7 6 5 5 4 4 3 3 3 3 3 3 3 3 4 4 5 5 5 6 5 5 6 6 6 6 6 7 7 8 8 9 9 10 11 11 12 13 13 13 14 14 14 14 14 14 14 15 15 16 16 17 18 18 19 20 21 21 23 23
Wind_Direction
239 245 253 260 267 273 276 279 282 284 287 286 285 286 287 290 290 287 284 280 280 281 280 281 283 284 285 285 285 286 287 288 290 289 286 280 270 261 256 254 256 258 260 261 261 262 262 262 263 264 265 264 264 265 267 270 270 268 265 261 258 255 250 244 245 250 253 253 250 248 247 245 245 244 238 231 228 227 227 227 228 230 230 229 229
248 253 256 261 265 269 272 278 282 284 285 285 284 285 287 289 290 287 285 284 282 280 279 279 280 281 283 283 285 285 285 286 288 290 289 283 274 265 259 255 254 255 258 259 260 261 262 262 262 263 264 264 264 265 267 269 268 267 266 263 260 258 254 247 246 248 250 250 249 247 245 242 242 242 237 232 228 226 226 226 226 227 227 227 229
244 251 260 267 271 277 282 287 290 289 290 289 288 287 286 285 285 284 283 283 282 281 281 280 280 280 280 280 281 283 285 286 287 289 290 284 275 266 261 259 257 256 256 258 260 262 263 264 264 264 265 265 266 266 267 268 267 267 268 267 264 262 258 252 248 247 248 249 249 249 246 242 241 240 237 233 229 226 225 224 225 225 225 226 229
251 257 266 274 281 287 292 293 292 292 292 292 291 289 286 283 282 283 284 284 283 283 283 281 280 279 277 277 278 280 283 285 287 287 289 286 278 268 261 258 257 257 257 258 260 261 263 264 265 266 267 267 267 269 269 269 268 268 269 269 266 263 260 255 250 248 246 246 248 247 245 242 242 241 236 230 227 226 225 223 223 223 223 227 229
271 275 280 286 292 297 299 295 292 291 291 291 292 291 289 288 286 287 288 288 287 284 283 282 281 280 279 278 278 278 280 283 284 285 287 287 282 274 266 260 257 257 258 259 260 261 263 264 265 267 268 268 269 271 272 271 271 270 269 268 266 265 261 256 251 247 244 243 245 245 241 240 241 241 237 230 227 226 224 222 222 221 221 225 227
285 289 292 294 299 302 299 294 290 290 291 292 293 294 295 294 293 293 293 291 290 288 286 285 284 284 284 283 282 281 281 282 283 284 285 285 285 281 275 267 261 258 258 259 260 261 263 264 265 267 268 268 269 271 272 272 272 271 270 270 268 266 263 258 253 247 243 243 245 244 241 240 241 242 242 236 230 226 222 218 218 219 221 224 226
289 291 294 297 301 299 294 291 290 292 293 294 296 297 298 299 298 299 298 296 296 296 294 293 291 290 290 289 288 288 287 286 285 284 284 284 285 284 282 278 271 264 261 259 260 261 262 264 265 267 266 266 268 271 271 271 272 272 272 271 269 266 262 260 255 249 245 243 242 243 242 240 239 241 242 237 228 223 220 216 214 216 220 223 226
287 289 292 296 296 293 290 291 293 296 298 299 300 300 300 301 302 302 303 302 302 302 302 300 298 297 296 294 294 293 291 290 289 288 287 287 286 286 285 284 281 276 271 266 263 262 262 263 265 266 266 266 268 271 271 272 272 272 272 271 269 266 263 260 256 251 247 244 242 243 241 237 235 237 237 230 222 218 216 216 216 218 221 225 229
287 291 292 293 293 293 296 298 300 303 304 304 303 303 302 303 304 305 306 306 306 306 304 302 301 301 300 298 297 295 293 293 293 293 292 290 288 287 286 285 284 283 280 276 270 265 263 263 264 265 265 267 269 270 272 273 273 272 272 271 268 266 264 260 256 251 247 243 241 240 238 235 234 233 231 227 223 219 215 213 216 220 223 228 231
291 293 294 296 298 300 302 303 305 306 306 305 305 304 304 305 305 307 307 308 308 307 305 303 304 303 302 300 298 296 295 295 296 296 295 293 291 288 287 286 285 284 282 281 277 272 266 264 264 265 266 267 269 270 272 274 274 273 273 271 268 267 265 261 256 251 246 242 239 236 234 233 233 232 231 229 225 220 215 212 214 216 220 225 228
295 297 298 300 300 302 302 303 304 304 303 304 303 303 303 303 304 304 304 305 305 304 304 304 305 305 304 303 301 299 298 298 298 297 295 294 292 290 288 286 285 284 282 281 281 279 275 270 268 267 267 267 269 270 272 273 274 275 274 271 268 266 264 261 257 253 247 242 240 236 234 233 233 231 230 228 223 216 214 213 213 215 220 225 227
300 300 301 304 304 305 305 303 303 302 301 301 300 301 302 303 303 303 302 302 301 299 300 301 302 303 303 302 302 302 302 301 300 299 296 294 292 290 288 286 285 283 282 281 282 282 281 279 276 273 270 270 270 272 273 273 273 274 274 271 267 265 265 263 260 255 250 245 240 237 235 233 232 230 228 224 218 214 213 213 214 220 226 230 230
301 301 304 307 307 307 307 305 305 304 302 301 301 302 304 304 305 305 304 303 302 301 301 301 301 302 302 301 302 302 304 305 305 303 300 297 294 290 288 287 285 283 282 282 282 282 282 281 281 279 277 275 274 274 274 274 274 274 274 273 269 267 266 265 262 258 253 247 242 240 239 235 230 230 229 223 216 213 212 213 217 224 231 234 233
297 298 301 304 306 307 307 306 307 306 306 306 306 307 308 307 308 308 307 306 306 306 306 306 306 305 305 305 304 304 305 308 308 307 305 302 298 293 290 287 285 283 282 282 282 282 282 281 281 281 280 278 277 276 276 276 275 276 276 274 272 270 268 265 262 257 251 246 243 243 243 238 234 234 230 221 215 215 218 222 226 231 236 236 229
293 295 298 300 302 304 305 306 307 308 309 309 310 312 312 312 312 312 310 310 310 310 309 309 309 308 308 308 307 306 307 309 309 308 306 304 301 296 291 288 285 284 283 282 282 282 282 282 282 282 282 281 280 279 279 278 277 277 277 275 275 273 271 268 264 258 251 247 244 243 241 238 236 234 227 219 217 222 227 231 235 237 236 229 218
296 298 300 301 302 303 304 305 306 308 310 311 312 313 314 314 315 315 313 313 312 312 311 311 310 310 310 310 309 307 307 308 308 307 306 304 302 297 293 289 287 285 284 283 282 282 282 282 282 283 283 283 282 281 281 280 278 276 276 276 275 274 272 270 267 259 251 245 242 240 238 238 235 228 222 219 222 225 226 229 232 233 227 218 211
301 303 305 306 307 309 309 308 308 309 310 311 312 313 314 315 317 317 316 315 315 314 313 312 311 311 310 309 309 306 304 305 306 305 304 303 301 297 294 291 288 286 285 283 282 282 282 282 282 283 284 284 283 282 281 279 277 275 274 274 273 272 270 269 264 257 249 245 245 243 240 237 231 225 222 222 224 225 225 226 227 222 214 210 210
305 306 309 312 314 316 316 315 314 313 313 313 314 314 315 316 316 316 316 315 314 314 313 312 311 310 309 308 307 305 303 303 304 303 302 301 299 296 293 290 287 286 285 285 284 282 281 282 282 282 283 284 284 283 280 277 275 274 273 272 270 269 268 266 261 256 251 248 246 242 238 233 229 227 225 224 224 226 227 227 226 219 212 211 212
307 309 312 316 317 318 318 316 315 314 314 314 313 314 314 315 314 314 313 312 311 311 310 310 308 308 308 308 307 306 304 304 303 302 301 299 297 295 292 288 286 285 285 285 285 283 282 282 281 281 283 284 284 283 281 277 274 274 274 271 269 269 267 264 262 259 256 251 244 238 233 229 227 227 226 224 224 224 224 224 226 223 219 217 213
310 311 313 315 315 314 314 313 312 311 311 311 311 311 312 312 312 311 310 309 308 307 307 307 306 306 307 308 307 307 306 305 303 302 300 298 296 294 291 287 285 286 286 285 285 284 283 282 281 281 283 284 284 284 282 278 276 275 273 270 269 270 270 267 264 262 258 252 245 237 231 225 222 222 223 222 219 215 212 216 222 224 223 220 215
311 311 312 313 312 312 312 311 310 310 309 309 309 309 309 309 309 308 307 306 305 304 304 305 304 304 305 306 306 306 306 305 304 302 300 298 297 294 290 287 286 286 286 285 283 283 282 282 282 283 284 284 285 285 283 280 278 276 274 273 273 274 272 267 264 260 254 247 239 232 227 222 218 219 220 218 212 205 205 213 220 222 221 219 216
309 309 310 310 310 310 310 308 308 308 307 307 306 306 306 306 305 305 305 304 303 302 301 301 301 301 302 304 305 306 307 307 306 304 302 299 297 294 290 288 288 287 285 283 281 281 282 283 283 284 285 285 285 284 283 282 281 278 277 277 276 274 268 263 259 253 246 239 231 225 221 217 216 216 214 210 206 202 207 219 223 220 219 219 219
308 308 308 308 307 307 306 305 304 304 304 304 303 303 304 304 303 303 303 302 301 300 299 299 299 299 300 301 303 305 307 307 306 304 302 299 296 293 290 288 287 284 281 280 281 282 283 284 284 285 285 285 285 285 284 284 282 280 279 279 276 270 264 257 251 245 238 231 224 220 216 213 212 211 207 204 203 205 216 224 221 217 215 216 218
307 307 308 307 306 305 304 303 302 302 302 302 302 301 302 302 302 302 302 301 301 300 299 299 299 299 299 299 301 304 306 306 305 304 302 299 297 293 291 289 286 282 279 279 281 283 284 285 285 285 284 284 284 285 285 284 282 279 279 277 273 266 258 250 244 238 231 224 218 214 212 210 209 207 204 202 204 211 220 219 214 211 211 211 213
308 309 309 308 307 306 304 302 302 302 302 302 302 301 301 301 301 301 301 302 301 301 300 300 299 298 298 298 299 300 302 302 303 303 302 301 299 295 292 290 286 281 277 277 279 281 282 283 284 283 282 282 283 283 283 282 281 280 278 273 266 260 253 246 239 233 226 220 214 210 210 209 207 204 202 201 205 215 218 214 210 210 210 210 213
309 309 309 308 307 306 305 303 302 302 301 301 301 301 301 302 301 301 301 302 302 302 302 301 300 298 296 296 297 297 298 299 300 302 303 303 302 297 293 289 284 279 276 275 277 278 279 280 280 279 280 281 282 282 282 282 281 280 275 267 261 256 249 242 235 229 223 218 212 209 209 208 204 201 199 198 206 216 217 216 215 214 213 215 216
312 311 311 310 309 308 307 305 303 302 301 301 300 300 300 301 300 300 300 301 302 302 302 301 300 297 296 296 296 296 296 296 298 301 303 304 303 298 293 289 285 281 277 276 277 277 277 276 275 276 277 279 279 278 278 278 276 273 267 258 254 252 248 241 235 230 224 218 213 210 209 207 201 197 195 197 205 211 214 217 218 217 217 219 220
315 315 315 315 313 312 310 307 305 303 302 301 300 299 299 299 299 297 297 299 300 300 301 300 299 297 296 295 295 294 294 295 297 300 302 302 300 298 294 290 287 283 280 279 279 278 276 274 272 272 273 273 273 273 272 270 268 265 260 252 247 246 243 238 233 228 224 218 213 210 208 203 196 192 195 201 205 206 211 216 218 219 220 222 223
315 315 315 315 314 314 312 310 308 305 303 301 300 299 298 298 298 296 295 296 297 297 297 297 298 297 295 293 293 293 293 295 297 298 298 298 297 295 292 290 288 286 284 284 282 278 275 272 270 270 270 269 270 269 268 266 264 259 255 249 243 238 234 230 226 222 219 217 214 210 205 197 192 195 202 205 204 209 219 223 222 222 223 224 227
312 312 313 313 313 313 313 312 310 307 305 303 301 299 297 296 297 296 296 295 295 295 294 294 294 294 292 291 291 291 292 295 296 295 295 294 293 291 289 288 288 287 286 285 280 275 272 271 269 269 268 268 268 267 266 264 260 255 250 245 239 233 229 226 222 219 218 217 213 207 200 195 196 202 206 212 222 233 236 232 227 226 226 227 229
311 311 312 312 312 312 312 311 311 309 307 305 303 302 300 298 296 296 297 297 296 295 294 293 292 290 288 288 288 289 290 293 294 293 292 290 288 288 287 287 287 286 285 282 276 271 270 269 268 268 267 266 266 266 265 262 255 248 242 235 230 227 224 222 220 219 218 213 207 202 199 200 204 207 212 224 238 244 242 235 230 229 229 230 231
309 309 309 309 309 310 309 310 310 309 307 306 304 303 302 301 299 298 298 298 298 296 295 294 292 288 285 284 284 285 288 289 290 289 288 287 285 284 285 285 284 283 281 275 267 265 268 268 268 268 267 266 266 265 263 257 249 241 233 224 221 221 221 221 222 220 215 207 202 201 203 205 208 212 221 232 241 245 243 237 232 231 231 231 232
309 308 308 307 307 307 307 308 308 307 307 305 304 302 302 301 301 301 300 299 298 297 297 296 294 289 285 282 281 282 284 285 285 285 285 284 283 283 283 283 281 278 274 262 253 257 265 268 268 267 267 266 266 263 259 253 244 237 230 221 217 216 216 217 217 215 209 204 203 205 206 208 212 220 231 242 249 250 246 240 234 232 232 232 231
311 310 310 309 309 308 308 307 306 306 305 304 303 301 300 300 300 301 301 300 300 300 299 299 296 292 287 284 281 281 282 282 281 282 282 281 282 283 283 281 278 273 264 249 245 253 264 268 268 267 266 265 264 260 255 249 241 235 229 220 216 214 212 210 209 209 207 207 210 213 214 218 225 232 242 252 255 252 246 239 234 232 232 232 230
310 310 310 310 309 308 308 307 306 305 305 303 302 300 299 299 299 300 301 301 301 301 301 301 299 295 291 287 284 282 281 281 280 280 280 281 284 283 279 275 272 265 252 240 242 254 265 269 269 268 266 264 261 257 251 245 238 233 229 223 219 217 214 211 210 212 215 216 218 221 226 231 235 241 250 257 257 252 245 239 236 235 234 232 230
310 310 310 310 309 308 307 307 306 305 304 302 301 300 299 299 299 299 300 300 299 299 300 300 298 296 292 287 284 283 281 280 279 278 280 283 283 278 271 267 263 254 241 234 240 251 262 269 270 270 268 264 261 256 250 243 237 233 230 227 225 222 220 217 216 219 221 223 226 230 235 239 243 249 255 257 254 250 245 240 239 238 235 231 230
313 313 312 312 311 310 309 308 307 306 305 303 301 300 299 299 298 298 298 297 297 297 298 298 297 294 289 284 283 283 282 280 277 277 280 282 277 268 262 257 250 242 236 236 241 249 259 267 270 270 269 267 263 259 251 244 238 234 232 231 230 228 226 224 222 223 224 227 231 236 241 245 249 253 255 254 248 244 242 241 239 236 232 231 232
314 314 313 312 311 310 309 309 308 308 308 307 305 303 302 299 297 295 294 294 295 295 295 296 294 291 287 284 283 283 282 278 276 276 277 276 270 261 253 245 238 233 233 238 245 251 259 266 270 271 270 268 266 262 256 247 240 236 233 233 232 231 229 228 226 225 226 228 231 236 241 245 249 251 250 247 243 242 243 241 237 232 229 230 232
314 313 312 311 311 310 309 309 310 310 311 311 309 307 304 300 297 294 292 293 294 294 295 294 291 289 289 288 285 282 279 276 275 276 274 269 263 252 239 234 236 238 238 241 247 253 259 265 270 272 270 268 264 261 258 253 246 242 239 237 234 232 230 229 228 228 229 232 235 239 242 245 247 246 245 243 243 243 242 239 237 234 232 232 233
315 314 313 313 313 312 312 313 313 313 313 313 310 308 304 300 297 293 291 292 293 294 294 294 291 291 292 290 285 280 276 273 275 278 275 269 262 247 232 230 239 247 249 250 253 256 260 265 271 275 274 271 266 261 257 253 249 246 244 242 241 239 239 238 238 238 238 239 241 242 243 242 241 240 241 242 242 242 240 238 237 237 237 237 237
317 317 316 317 318 317 317 316 316 315 315 313 309 306 303 300 297 295 293 292 293 293 294 294 294 292 290 286 281 276 271 268 270 274 271 267 260 245 233 232 239 246 251 256 259 260 262 266 270 275 276 273 269 265 258 251 246 243 241 240 240 240 240 240 240 239 239 238 238 238 238 238 239 239 240 240 239 238 238 237 237 237 238 239 239
322 321 321 321 322 321 320 318 318 318 317 314 310 306 303 300 298 295 294 294 294 293 292 295 295 293 288 281 273 269 267 265 264 266 265 261 254 242 235 235 241 245 250 254 256 258 261 265 268 272 273 269 264 258 249 240 235 232 232 233 233 233 233 233 232 232 233 233 234 236 238 239 238 238 238 238 238 238 238 237 236 236 238 240 241
327 325 325 324 323 322 322 322 322 321 320 316 312 308 305 301 299 298 297 296 293 290 290 293 295 291 285 274 263 262 265 264 259 257 255 251 248 244 241 245 251 256 258 260 261 262 263 265 267 270 269 263 255 246 236 229 224 223 225 228 230 231 232 231 231 231 232 232 233 235 236 235 235 235 235 237 238 237 236 236 234 234 236 238 238
332 330 328 327 326 326 328 328 327 326 324 322 317 313 310 308 305 303 301 297 292 290 291 292 288 282 276 265 258 260 264 266 266 273 286 285 273 266 263 267 273 275 275 274 272 271 270 269 269 270 270 267 261 250 242 236 231 227 225 226 228 232 234 234 234 235 235 236 236 235 234 233 234 235 236 236 235 233 231 231 231 232 232 233 234
339 337 336 334 333 333 333 333 333 332 331 330 326 322 319 316 312 306 299 291 287 288 290 285 273 264 258 253 253 257 262 266 276 290 299 303 307 305 295 292 292 288 283 279 274 269 267 266 265 266 266 264 259 253 248 244 241 237 234 231 229 230 232 234 235 235 235 236 236 236 236 236 237 236 235 232 231 232 233 235 236 236 237 238 241
346 344 342 340 339 338 338 338 339 339 338 337 335 332 328 322 316 309 301 293 289 289 285 276 264 254 246 242 245 253 260 268 277 286 291 293 292 293 292 292 292 291 289 287 281 273 267 263 261 260 258 255 251 248 247 243 239 238 237 234 231 230 230 231 232 232 233 234 234 234 234 233 231 231 231 231 233 236 240 242 244 244 244 247 251
352 350 347 345 343 342 342 343 344 345 345 345 344 341 337 330 324 317 311 306 301 294 285 276 266 254 245 240 244 250 257 266 273 276 282 285 284 285 285 285 286 289 290 288 282 274 267 263 259 254 251 249 245 242 241 240 237 236 236 234 235 235 233 232 231 229 227 227 227 228 231 231 230 230 232 233 235 236 239 243 247 248 249 251 253
357 355 352 349 347 347 347 349 351 352 352 352 352 351 348 344 340 336 331 326 318 306 296 289 277 262 249 240 239 241 246 256 261 263 268 273 275 277 276 275 278 284 288 287 282 270 264 264 262 255 250 250 247 244 242 240 239 237 234 232 234 234 232 232 233 232 230 228 226 226 230 236 240 242 244 245 243 242 243 246 250 252 252 252 252
360 359 356 355 354 354 354 355 356 358 359 360 360 359 358 357 356 354 351 348 342 337 332 328 320 311 301 284 266 259 260 264 268 270 272 274 274 273 271 270 272 277 281 281 275 269 265 265 265 263 259 255 253 250 246 243 242 240 237 235 235 235 235 235 236 236 238 241 241 240 240 241 243 246 249 252 253 252 250 249 250 250 250 251 251
360 360 360 359 359 0 1 2 3 4 5 6 6 7 7 7 8 9 9 7 5 4 2 1 358 357 356 352 348 341 328 315 309 304 297 292 287 280 276 275 273 273 275 273 269 266 265 266 269 270 268 264 261 258 253 250 248 246 243 242 242 241 241 241 241 242 244 247 250 252 253 251 250 250 251 252 253 253 253 253 253 254 254 254 254
357 358 359 1 2 3 4 6 8 10 11 11 13 14 14 15 16 17 17 16 15 14 13 12 11 10 10 11 12 11 7 1 357 346 333 325 315 301 296 293 287 283 281 278 273 271 270 269 268 268 266 263 260 257 253 250 249 248 247 247 247 247 247 248 248 250 251 252 253 254 254 254 253 253 254 255 256 256 257 258 257 257 257 257 256
Height
1511 1511 1511 1511 1512 1512 1512 1512 1511 1511 1511 1510 1509 1509 1508 1508 1507 1506 1505 1505 1504 1503 1503 1503 1502 1502 1502 1501 1501 1500 1500 1499 1498 1497 1494 1493 1492 1491 1492 1493 1493 1493 1494 1495 1496 1496 1496 1496 1496 1498 1500 1499 1498 1499 1499 1499 1499 1498 1498 1499 1499 1500 1501 1502 1499 1494 1495 1498 1499 1501 1502 1503 1504 1504 1505 1507 1508 1510 1513 1516 1519 1520 1522 1523 1524
1509 1509 1509 1509 1509 1509 1509 1509 1509 1508 1508 1507 1507 1506 1506 1505 1504 1503 1502 1501 1501 1500 1499 1499 1498 1497 1497 1497 1497 1496 1495 1495 1494 1493 1492 1490 1489 1488 1489 1489 1489 1489 1490 1490 1491 1491 1491 1490 1491 1493 1495 1494 1493 1493 1493 1493 1493 1491 1492 1492 1492 1493 1495 1496 1494 1490 1489 1491 1492 1493 1495 1496 1497 1497 1498 1499 1501 1504 1506 1510 1513 1515 1517 1519 1520
1507 1506 1506 1506 1506 1506 1506 1506 1506 1505 1505 1504 1504 1503 1502 1502 1500 1499 1499 1498 1497 1496 1496 1495 1494 1493 1493 1493 1493 1492 1491 1491 1490 1490 1489 1487 1486 1485 1486 1485 1485 1485 1485 1485 1486 1487 1486 1485 1486 1488 1489 1488 1487 1488 1488 1487 1487 1486 1486 1486 1486 1486 1487 1489 1488 1487 1486 1486 1486 1487 1489 1491 1491 1491 1493 1495 1498 1499 1500 1502 1505 1508 1511 1513 1516
1504 1503 1503 1503 1503 1503 1503 1503 1503 1502 1502 1501 1500 1500 1499 1498 1497 1496 1495 1495 1494 1493 1492 1491 1490 1489 1489 1489 1488 1488 1487 1487 1486 1486 1485 1485 1483 1482 1482 1482 1481 1481 1480 1480 1481 1482 1481 1480 1480 1482 1484 1482 1481 1482 1482 1482 1481 1481 1481 1480 1480 1479 1479 1480 1480 1481 1481 1481 1480 1481 1485 1487 1488 1489 1490 1491 1493 1494 1494 1496 1498 1502 1505 1508 1510
1500 1500 1500 1500 1500 1500 1500 1500 1499 1499 1498 1497 1497 1496 1495 1494 1494 1493 1492 1491 1491 1490 1489 1488 1487 1486 1485 1485 1484 1483 1483 1483 1482 1482 1481 1481 1480 1479 1478 1477 1477 1476 1476 1476 1477 1477 1476 1475 1476 1477 1478 1476 1475 1476 1476 1476 1476 1475 1475 1475 1474 1474 1474 1474 1475 1476 1478 1478 1476 1476 1479 1483 1486 1487 1488 1489 1489 1490 1492 1493 1495 1497 1499 1502 1504
1497 1497 1497 1497 1497 1497 1497 1497 1496 1495 1495 1494 1494 1493 1492 1491 1490 1490 1489 1487 1487 1486 1485 1484 1483 1482 1481 1480 1479 1479 1478 1478 1478 1477 1477 1477 1476 1475 1474 1473 1472 1471 1471 1471 1471 1472 1471 1470 1471 1472 1471 1470 1469 1470 1471 1471 1470 1469 1468 1469 1470 1470 1470 1470 1470 1472 1474 1475 1475 1475 1476 1479 1483 1484 1485 1486 1486 1486 1488 1490 1492 1494 1494 1496 1499
1495 1495 1494 1494 1495 1494 1494 1494 1493 1493 1492 1491 1491 1490 1489 1488 1487 1486 1485 1484 1483 1482 1481 1480 1478 1477 1477 1476 1475 1474 1474 1473 1473 1473 1473 1472 1471 1470 1469 1468 1467 1466 1465 1465 1466 1466 1465 1465 1465 1465 1465 1464 1464 1464 1464 1465 1464 1463 1462 1464 1465 1465 1465 1465 1466 1466 1468 1469 1469 1471 1472 1474 1477 1478 1479 1482 1482 1483 1484 1484 1486 1487 1489 1491 1493
1492 1492 1492 1492 1492 1492 1492 1491 1491 1490 1490 1489 1489 1487 1486 1485 1484 1483 1482 1480 1479 1478 1476 1475 1474 1473 1473 1472 1471 1470 1469 1468 1468 1468 1468 1468 1467 1466 1465 1464 1463 1461 1460 1460 1460 1459 1459 1459 1459 1459 1459 1458 1458 1458 1459 1459 1458 1457 1457 1459 1460 1459 1459 1459 1459 1460 1461 1462 1461 1463 1464 1466 1467 1469 1472 1474 1473 1473 1474 1476 1478 1482 1485 1487 1488
1490 1490 1489 1489 1490 1489 1489 1489 1488 1488 1488 1487 1486 1485 1484 1483 1482 1481 1479 1478 1476 1475 1473 1472 1470 1470 1469 1468 1467 1466 1464 1464 1464 1464 1463 1463 1462 1461 1460 1459 1458 1457 1455 1454 1454 1453 1453 1453 1452 1452 1452 1452 1453 1453 1453 1453 1453 1451 1452 1453 1454 1454 1453 1453 1452 1452 1454 1455 1455 1456 1457 1457 1458 1459 1461 1461 1461 1463 1466 1470 1473 1477 1480 1482 1484
1487 1487 1487 1488 1488 1487 1487 1487 1487 1486 1485 1484 1484 1483 1482 1480 1479 1478 1476 1475 1473 1472 1470 1469 1468 1467 1465 1464 1463 1462 1461 1460 1460 1460 1459 1458 1457 1456 1455 1454 1453 1452 1450 1449 1448 1447 1447 1446 1446 1446 1446 1446 1447 1447 1447 1447 1447 1446 1447 1448 1448 1447 1447 1446 1445 1445 1446 1447 1447 1448 1448 1448 1448 1449 1451 1454 1457 1459 1461 1463 1467 1471 1474 1477 1479
1486 1486 1486 1486 1486 1486 1485 1485 1485 1484 1483 1482 1481 1480 1479 1478 1476 1475 1473 1472 1470 1468 1467 1466 1465 1463 1461 1460 1458 1457 1456 1456 1456 1455 1454 1453 1453 1451 1450 1448 1447 1446 1445 1443 1442 1441 1441 1440 1440 1440 1439 1439 1440 1440 1441 1442 1442 1441 1442 1442 1441 1440 1441 1440 1439 1440 1441 1441 1441 1440 1439 1439 1440 1442 1446 1450 1454 1455 1456 1458 1461 1464 1468 1470 1472
1484 1484 1484 1484 1483 1483 1483 1482 1482 1481 1480 1479 1478 1477 1476 1474 1473 1471 1470 1469 1467 1465 1464 1462 1461 1459 1458 1455 1454 1453 1452 1451 1451 1450 1449 1448 1448 1446 1445 1443 1441 1440 1439 1437 1436 1435 1435 1434 1433 1433 1432 1432 1433 1434 1434 1435 1436 1436 1436 1436 1434 1434 1433 1433 1433 1434 1434 1434 1435 1434 1433 1434 1436 1438 1441 1445 1449 1452 1455 1456 1457 1459 1462 1465 1467
1482 1482 1482 1481 1481 1480 1479 1479 1478 1478 1477 1476 1475 1473 1472 1470 1469 1467 1466 1464 1463 1461 1460 1458 1456 1455 1453 1451 1449 1447 1446 1445 1445 1444 1443 1443 1443 1441 1439 1438 1436 1434 1433 1432 1431 1430 1429 1428 1427 1426 1426 1426 1427 1427 1427 1428 1429 1429 1429 1428 1427 1426 1426 1426 1426 1426 1427 1428 1429 1429 1429 1431 1432 1433 1437 1442 1448 1452 1454 1454 1454 1456 1459 1461 1463
1480 1480 1479 1478 1477 1476 1476 1475 1474 1474 1473 1471 1470 1469 1468 1466 1465 1463 1461 1459 1458 1456 1455 1453 1451 1450 1448 1446 1444 1441 1440 1440 1439 1439 1438 1437 1437 1436 1434 1432 1431 1429 1427 1426 1425 1424 1424 1423 1421 1420 1420 1421 1421 1421 1422 1422 1422 1422 1422 1420 1420 1419 1420 1420 1420 1420 1421 1422 1422 1422 1423 1425 1426 1428 1434 1441 1446 1449 1452 1453 1454 1455 1456 1458 1460
1477 1477 1476 1476 1475 1473 1472 1471 1470 1469 1468 1467 1466 1465 1463 1462 1460 1459 1456 1455 1453 1451 1449 1448 1446 1444 1443 1441 1438 1436 1435 1435 1434 1433 1432 1432 1431 1430 1428 1426 1425 1423 1421 1421 1419 1418 1417 1417 1415 1414 1414 1414 1415 1415 1416 1415 1415 1415 1414 1413 1413 1413 1413 1413 1413 1414 1415 1416 1416 1418 1419 1421 1423 1427 1433 1439 1443 1447 1450 1452 1452 1452 1452 1454 1457
1474 1474 1474 1473 1472 1471 1470 1468 1467 1465 1464 1462 1461 1460 1459 1457 1456 1454 1452 1450 1449 1447 1445 1443 1441 1439 1437 1435 1433 1431 1430 1430 1430 1429 1428 1427 1426 1424 1422 1420 1418 1416 1415 1414 1413 1412 1411 1410 1409 1408 1407 1408 1409 1409 1409 1409 1409 1407 1406 1406 1406 1406 1405 1406 1407 1408 1409 1410 1412 1414 1417 1419 1422 1426 1431 1435 1438 1441 1443 1445 1445 1446 1447 1450 1453
1472 1471 1471 1470 1469 1469 1467 1465 1464 1462 1461 1459 1458 1456 1455 1454 1452 1450 1448 1446 1444 1442 1440 1438 1436 1434 1433 1431 1429 1427 1426 1426 1425 1424 1423 1422 1420 1418 1416 1414 1412 1410 1409 1408 1407 1406 1404 1404 1403 1402 1401 1401 1402 1403 1403 1403 1401 1400 1400 1400 1400 1399 1398 1399 1401 1402 1402 1405 1407 1409 1411 1414 1417 1422 1425 1427 1430 1432 1435 1436 1438 1440 1442 1445 1447
1469 1468 1467 1467 1466 1465 1463 1462 1460 1459 1458 1457 1455 1454 1452 1451 1449 1447 1445 1442 1440 1439 1437 1435 1433 1431 1430 1428 1426 1424 1422 1422 1421 1420 1418 1417 1415 1413 1411 1409 1406 1404 1402 1401 1400 1399 1398 1398 1398 1397 1395 1395 1396 1397 1398 1397 1396 1394 1394 1394 1393 1392 1391 1393 1395 1395 1397 1400 1403 1405 1406 1409 1413 1416 1419 1422 1424 1426 1428 1430 1432 1434 1437 1439 1442
1465 1465 1464 1463 1462 1461 1460 1459 1457 1456 1455 1454 1452 1451 1449 1448 1447 1445 1443 1441 1438 1436 1434 1432 1430 1429 1427 1425 1423 1420 1418 1417 1416 1415 1413 1412 1410 1408 1406 1404 1400 1398 1397 1395 1393 1392 1392 1391 1391 1391 1390 1390 1391 1391 1392 1391 1390 1389 1389 1389 1386 1385 1387 1390 1391 1391 1393 1395 1397 1399 1401 1404 1407 1411 1414 1417 1419 1421 1423 1425 1427 1429 1432 1434 1438
1463 1462 1461 1460 1460 1459 1457 1456 1455 1453 1452 1451 1449 1448 1446 1445 1444 1442 1440 1438 1435 1433 1432 1429 1427 1425 1423 1421 1419 1417 1415 1413 1412 1410 1408 1407 1405 1403 1401 1398 1395 1394 1392 1390 1387 1386 1385 1385 1385 1385 1385 1385 1385 1385 1385 1385 1384 1384 1384 1382 1379 1380 1384 1386 1386 1387 1388 1389 1390 1392 1395 1398 1402 1406 1409 1411 1413 1415 1417 1419 1422 1425 1428 1430 1434
1460 1460 1459 1458 1457 1456 1455 1454 1452 1451 1450 1447 1446 1444 1443 1441 1440 1438 1436 1434 1432 1430 1428 1426 1423 1421 1419 1417 1415 1413 1411 1408 1407 1405 1403 1401 1400 1398 1395 1393 1391 1390 1388 1385 1382 1380 1379 1379 1379 1379 1379 1379 1379 1379 1379 1379 1379 1378 1376 1374 1375 1378 1381 1380 1381 1382 1383 1384 1386 1388 1390 1394 1398 1401 1403 1405 1407 1409 1412 1415 1419 1422 1424 1427 1431
1458 1457 1456 1455 1454 1453 1452 1451 1449 1448 1446 1444 1442 1440 1439 1438 1435 1433 1431 1429 1427 1425 1423 1422 1419 1416 1415 1413 1410 1408 1406 1404 1401 1399 1397 1395 1394 1392 1390 1387 1387 1387 1383 1379 1377 1376 1375 1375 1374 1374 1374 1373 1373 1374 1373 1373 1373 1372 1370 1371 1373 1375 1375 1375 1376 1377 1378 1379 1382 1384 1386 1390 1394 1397 1399 1401 1404 1406 1409 1412 1416 1419 1422 1425 1428
1455 1454 1453 1452 1451 1450 1449 1448 1446 1445 1443 1441 1439 1436 1435 1433 1431 1429 1427 1424 1422 1420 1418 1417 1414 1411 1409 1407 1405 1403 1401 1398 1396 1394 1392 1390 1388 1387 1385 1383 1382 1382 1379 1374 1372 1371 1371 1370 1370 1369 1369 1368 1368 1368 1367 1367 1367 1366 1366 1368 1369 1369 1370 1370 1370 1372 1374 1376 1377 1378 1380 1383 1387 1391 1394 1398 1402 1404 1406 1410 1413 1416 1419 1423 1426
1452 1451 1451 1449 1448 1447 1446 1444 1443 1441 1439 1437 1435 1432 1430 1428 1426 1424 1422 1420 1417 1414 1413 1411 1408 1405 1402 1400 1398 1397 1395 1392 1390 1388 1386 1385 1383 1381 1380 1378 1377 1377 1374 1370 1368 1368 1367 1366 1365 1364 1363 1363 1362 1362 1361 1361 1362 1362 1362 1364 1364 1365 1365 1365 1365 1367 1369 1371 1372 1374 1376 1378 1382 1387 1392 1396 1399 1401 1404 1408 1411 1414 1417 1419 1422
1449 1448 1447 1446 1445 1443 1442 1440 1439 1437 1435 1433 1430 1428 1425 1423 1421 1419 1417 1415 1412 1409 1407 1405 1402 1399 1397 1394 1392 1391 1389 1386 1384 1382 1380 1379 1377 1376 1374 1373 1372 1371 1369 1366 1364 1363 1362 1361 1360 1359 1358 1357 1357 1357 1356 1356 1356 1357 1358 1359 1360 1360 1361 1361 1362 1363 1364 1365 1368 1371 1374 1378 1382 1386 1390 1393 1395 1398 1402 1405 1408 1411 1413 1415 1418
1444 1444 1442 1441 1440 1438 1436 1434 1433 1431 1430 1428 1425 1423 1421 1418 1416 1414 1412 1409 1407 1404 1402 1399 1397 1394 1391 1389 1387 1385 1383 1380 1377 1376 1375 1373 1372 1371 1369 1368 1367 1365 1363 1361 1360 1359 1357 1356 1356 1354 1353 1352 1352 1351 1351 1351 1352 1353 1354 1355 1356 1356 1357 1358 1359 1360 1361 1363 1365 1368 1373 1377 1382 1385 1388 1389 1392 1396 1400 1403 1405 1407 1409 1412 1414
1440 1439 1437 1436 1434 1432 1430 1428 1426 1424 1423 1422 1420 1418 1416 1414 1411 1408 1406 1404 1401 1399 1396 1394 1391 1388 1385 1384 1382 1379 1377 1374 1371 1370 1369 1367 1366 1365 1364 1363 1362 1360 1359 1357 1355 1354 1352 1351 1350 1349 1348 1348 1347 1346 1346 1346 1347 1349 1349 1350 1351 1352 1353 1355 1356 1357 1359 1361 1364 1367 1372 1376 1380 1382 1384 1386 1390 1394 1398 1400 1402 1404 1406 1409 1411
1435 1434 1432 1430 1428 1426 1425 1422 1420 1418 1417 1415 1414 1412 1410 1408 1406 1403 1401 1399 1395 1393 1390 1387 1385 1383 1380 1378 1376 1373 1370 1368 1366 1364 1363 1361 1360 1360 1359 1357 1357 1355 1354 1352 1351 1349 1347 1346 1344 1343 1343 1342 1342 1342 1342 1342 1343 1345 1346 1346 1347 1348 1350 1352 1354 1356 1357 1359 1362 1365 1370 1374 1377 1378 1380 1383 1388 1392 1395 1397 1399 1401 1403 1406 1407
1431 1430 1428 1426 1423 1421 1419 1417 1415 1413 1410 1408 1407 1406 1404 1403 1399 1397 1396 1394 1391 1387 1384 1381 1379 1377 1375 1372 1370 1367 1364 1363 1361 1359 1357 1356 1355 1355 1354 1353 1352 1350 1349 1348 1346 1344 1342 1340 1339 1338 1338 1338 1338 1338 1339 1339 1340 1341 1342 1343 1344 1345 1347 1349 1351 1353 1355 1357 1360 1363 1368 1372 1373 1374 1377 1381 1386 1389 1392 1394 1397 1398 1400 1402 1404
1427 1425 1423 1421 1419 1416 1414 1412 1410 1407 1405 1402 1400 1398 1397 1397 1395 1391 1389 1388 1386 1382 1378 1375 1374 1372 1368 1367 1365 1362 1359 1357 1356 1354 1352 1351 1350 1350 1349 1348 1347 1345 1344 1343 1342 1339 1337 1336 1335 1334 1334 1334 1334 1335 1336 1337 1337 1338 1339 1340 1341 1342 1344 1346 1348 1350 1353 1355 1359 1363 1367 1369 1369 1371 1375 1380 1384 1387 1390 1392 1394 1396 1397 1399 1401
1422 1420 1417 1415 1413 1411 1409 1406 1403 1401 1399 1396 1393 1390 1388 1387 1387 1386 1383 1380 1378 1376 1372 1369 1368 1366 1363 1361 1359 1357 1354 1352 1351 1349 1347 1346 1345 1344 1344 1343 1342 1341 1340 1339 1337 1334 1333 1332 1331 1331 1331 1331 1331 1332 1333 1334 1335 1336 1337 1338 1339 1340 1343 1345 1347 1349 1351 1354 1358 1363 1365 1365 1366 1370 1374 1378 1382 1385 1388 1390 1391 1393 1394 1396 1398
1417 1415 1413 1411 1409 1407 1404 1401 1398 1395 1392 1390 1388 1385 1381 1378 1376 1376 1376 1373 1371 1369 1367 1364 1362 1360 1359 1356 1354 1351 1349 1347 1346 1344 1342 1341 1340 1339 1338 1337 1336 1336 1335 1334 1332 1330 1330 1329 1329 1328 1329 1329 1329 1331 1332 1333 1333 1334 1336 1336 1337 1338 1341 1344 1347 1349 1351 1354 1357 1360 1362 1363 1365 1369 1373 1377 1380 1383 1385 1387 1388 1389 1391 1393 1395
1414 1411 1409 1406 1404 1402 1399 1396 1393 1390 1387 1384 1382 1380 1377 1373 1369 1366 1366 1365 1363 1362 1360 1358 1356 1354 1353 1351 1349 1346 1344 1342 1340 1338 1337 1335 1334 1333 1333 1332 1331 1331 1331 1330 1328 1327 1327 1327 1327 1327 1327 1327 1328 1329 1330 1331 1332 1333 1335 1336 1336 1338 1340 1343 1347 1349 1351 1353 1356 1358 1359 1361 1364 1368 1372 1375 1378 1380 1382 1384 1385 1387 1388 1390 1392
1409 1406 1403 1400 1397 1395 1392 1389 1387 1384 1382 1379 1377 1374 1372 1369 1365 1361 1357 1355 1354 1353 1352 1352 1350 1348 1346 1345 1343 1342 1340 1337 1335 1333 1331 1330 1329 1329 1328 1327 1326 1326 1326 1326 1325 1325 1326 1326 1325 1325 1326 1326 1327 1328 1329 1330 1331 1332 1334 1335 1337 1338 1340 1343 1346 1349 1351 1352 1354 1355 1357 1359 1363 1367 1370 1373 1375 1377 1379 1381 1382 1384 1386 1387 1389
1404 1401 1398 1395 1392 1389 1386 1384 1381 1378 1375 1373 1371 1368 1365 1362 1360 1356 1353 1350 1347 1345 1344 1344 1343 1342 1341 1339 1338 1337 1335 1333 1331 1329 1327 1325 1325 1325 1324 1323 1322 1322 1323 1323 1323 1324 1324 1324 1324 1324 1324 1325 1326 1326 1327 1329 1330 1331 1333 1334 1336 1337 1340 1343 1345 1347 1349 1350 1352 1353 1355 1358 1362 1365 1368 1370 1372 1374 1376 1378 1379 1381 1383 1385 1386
1399 1396 1393 1391 1387 1384 1381 1378 1375 1373 1370 1368 1365 1362 1359 1356 1353 1350 1348 1346 1343 1340 1338 1337 1337 1336 1335 1334 1333 1332 1331 1329 1327 1325 1322 1321 1321 1321 1320 1319 1319 1319 1320 1321 1321 1322 1323 1323 1323 1324 1324 1324 1325 1326 1326 1328 1329 1330 1332 1333 1335 1336 1339 1341 1344 1346 1347 1349 1351 1353 1355 1358 1361 1363 1365 1368 1370 1371 1373 1375 1377 1378 1380 1382 1383
1392 1390 1387 1384 1381 1378 1375 1373 1370 1368 1365 1363 1360 1357 1354 1351 1348 1346 1343 1341 1339 1337 1334 1332 1331 1331 1330 1329 1328 1327 1326 1325 1324 1321 1319 1318 1318 1318 1318 1317 1317 1318 1319 1320 1320 1320 1321 1322 1323 1323 1324 1324 1324 1325 1326 1327 1329 1330 1331 1333 1334 1336 1338 1340 1342 1345 1347 1349 1350 1352 1355 1357 1359 1361 1363 1365 1367 1368 1370 1372 1373 1375 1377 1379 1380
1387 1384 1382 1379 1376 1373 1370 1367 1365 1363 1360 1357 1355 1352 1349 1346 1343 1341 1339 1337 1335 1333 1331 1329 1328 1326 1325 1325 1325 1324 1323 1322 1321 1318 1316 1315 1315 1316 1316 1316 1316 1317 1318 1319 1319 1320 1320 1322 1322 1323 1323 1324 1324 1325 1326 1327 1328 1330 1331 1332 1334 1335 1337 1339 1342 1344 1346 1348 1350 1352 1354 1356 1357 1359 1361 1362 1364 1365 1367 1368 1370 1372 1374 1375 1377
1383 1381 1378 1376 1373 1370 1367 1364 1361 1358 1356 1353 1350 1347 1344 1341 1339 1337 1335 1333 1331 1329 1328 1326 1324 1323 1322 1322 1321 1321 1320 1319 1318 1315 1314 1313 1313 1313 1314 1316 1317 1317 1317 1318 1319 1319 1320 1321 1322 1323 1323 1324 1324 1325 1326 1327 1328 1329 1331 1332 1333 1335 1336 1338 1340 1342 1345 1347 1349 1350 1352 1353 1355 1356 1358 1359 1361 1362 1364 1366 1367 1369 1371 1372 1374
1378 1376 1374 1372 1369 1367 1364 1361 1358 1355 1352 1349 1346 1343 1340 1337 1334 1332 1331 1329 1327 1326 1324 1323 1321 1320 1319 1319 1319 1318 1318 1317 1315 1314 1312 1312 1312 1312 1313 1315 1316 1317 1318 1318 1318 1319 1319 1320 1321 1322 1323 1324 1324 1325 1326 1327 1328 1329 1330 1331 1333 1334 1336 1337 1339 1341 1343 1344 1346 1348 1349 1351 1352 1354 1355 1357 1358 1360 1361 1363 1365 1366 1368 1370 1371
1375 1372 1370 1368 1366 1363 1360 1357 1355 1352 1348 1345 1342 1339 1336 1333 1330 1328 1327 1325 1323 1322 1321 1319 1318 1317 1317 1317 1316 1316 1316 1315 1314 1312 1311 1311 1312 1312 1313 1314 1315 1316 1317 1318 1318 1319 1319 1320 1321 1321 1322 1323 1324 1324 1325 1326 1327 1328 1329 1330 1331 1333 1334 1336 1337 1339 1340 1342 1344 1345 1347 1348 1350 1352 1353 1354 1356 1358 1359 1361 1362 1364 1365 1367 1368
1372 1369 1367 1364 1362 1359 1356 1353 1350 1347 1344 1341 1338 1335 1332 1329 1327 1325 1323 1321 1320 1319 1318 1316 1315 1315 1315 1314 1314 1315 1315 1314 1312 1311 1311 1311 1311 1312 1313 1314 1315 1315 1316 1317 1317 1318 1318 1319 1320 1320 1321 1322 1322 1323 1324 1324 1325 1326 1328 1329 1330 1331 1332 1334 1335 1337 1338 1340 1342 1343 1345 1346 1348 1349 1351 1352 1354 1355 1357 1358 1360 1361 1362 1364 1365
1370 1367 1364 1362 1359 1356 1353 1349 1346 1343 1340 1337 1334 1331 1329 1326 1323 1321 1319 1318 1317 1316 1315 1314 1313 1313 1313 1313 1313 1314 1314 1313 1311 1311 1310 1311 1311 1311 1312 1313 1314 1315 1315 1316 1316 1317 1317 1318 1319 1319 1320 1320 1321 1322 1322 1323 1324 1325 1326 1327 1328 1330 1331 1333 1334 1335 1337 1338 1340 1341 1343 1344 1346 1347 1349 1350 1351 1353 1354 1356 1357 1359 1360 1361 1363
1368 1365 1363 1360 1357 1354 1350 1347 1343 1340 1337 1333 1331 1328 1326 1323 1320 1318 1317 1316 1315 1314 1313 1312 1311 1311 1311 1312 1312 1313 1313 1312 1311 1310 1310 1310 1311 1311 1312 1313 1313 1314 1315 1315 1315 1316 1316 1317 1318 1319 1319 1320 1320 1321 1322 1322 1323 1324 1325 1326 1327 1328 1330 1331 1332 1334 1335 1337 1338 1340 1341 1343 1344 1346 1347 1348 1350 1351 1352 1353 1355 1356 1358 1359 1360
1366 1363 1360 1357 1354 1351 1348 1345 1341 1338 1334 1331 1328 1325 1323 1321 1318 1317 1315 1315 1314 1313 1312 1311 1310 1310 1310 1311 1312 1312 1312 1311 1311 1310 1310 1311 1311 1311 1312 1312 1313 1314 1314 1314 1315 1315 1316 1317 1317 1318 1318 1319 1320 1320 1321 1322 1323 1324 1324 1325 1326 1327 1328 1330 1331 1332 1334 1335 1337 1338 1340 1341 1343 1344 1345 1347 1348 1349 1351 1352 1353 1355 1356 1357 1358
1365 1362 1359 1356 1353 1350 1347 1343 1340 1336 1333 1330 1326 1324 1322 1320 1318 1316 1315 1314 1313 1312 1311 1310 1310 1310 1310 1310 1311 1311 1311 1311 1310 1310 1311 1311 1311 1311 1312 1312 1313 1313 1314 1314 1315 1315 1316 1316 1317 1318 1318 1318 1319 1320 1321 1322 1322 1323 1324 1325 1326 1327 1328 1329 1330 1331 1333 1334 1336 1337 1339 1340 1342 1343 1344 1346 1347 1348 1350 1351 1352 1353 1354 1355 1356
1364 1361 1359 1356 1353 1350 1347 1343 1339 1336 1333 1330 1327 1324 1322 1320 1318 1317 1315 1314 1313 1312 1311 1311 1310 1310 1310 1310 1310 1310 1310 1310 1310 1310 1310 1311 1311 1311 1312 1312 1313 1313 1314 1314 1314 1315 1315 1316 1317 1318 1318 1318 1318 1319 1320 1321 1322 1323 1324 1325 1326 1326 1327 1329 1330 1331 1332 1333 1335 1336 1337 1339 1340 1342 1343 1344 1346 1347 1348 1349 1350 1351 1352 1353 1354
1364 1361 1359 1356 1353 1350 1347 1343 1340 1336 1333 1330 1328 1325 1323 1321 1319 1317 1316 1314 1314 1313 1312 1312 1312 1311 1311 1310 1310 1310 1310 1310 1310 1310 1310 1310 1311 1311 1312 1312 1313 1313 1313 1314 1314 1315 1315 1316 1317 1317 1317 1317 1318 1318 1319 1320 1321 1322 1323 1325 1326 1326 1328 1329 1330 1331 1332 1333 1334 1335 1336 1337 1339 1340 1341 1342 1343 1345 1346 1347 1348 1349 1350 1351 1352
1364 1361 1359 1357 1354 1351 1347 1344 1341 1337 1334 1332 1329 1327 1325 1323 1320 1318 1317 1316 1315 1314 1314 1314 1313 1313 1312 1311 1310 1310 1310 1310 1310 1310 1310 1310 1310 1311 1311 1312 1313 1313 1313 1314 1315 1315 1316 1317 1317 1317 1317 1317 1318 1318 1319 1320 1321 1322 1323 1324 1325 1326 1328 1329 1330 1330 1331 1332 1333 1334 1335 1336 1337 1338 1339 1340 1341 1342 1343 1344 1345 1346 1347 1348 1349
1365 1363 1360 1358 1356 1352 1349 1346 1342 1339 1336 1334 1331 1329 1327 1325 1322 1320 1319 1318 1317 1317 1316 1315 1315 1314 1314 1313 1312 1311 1311 1310 1310 1310 1310 1311 1311 1311 1311 1312 1312 1313 1314 1314 1315 1315 1316 1316 1316 1316 1317 1317 1318 1318 1319 1320 1321 1322 1323 1324 1325 1326 1327 1328 1329 1329 1330 1331 1331 1332 1333 1334 1335 1335 1336 1337 1338 1339 1340 1341 1342 1343 1344 1345 1346
1366 1364 1362 1359 1356 1353 1350 1347 1344 1341 1338 1336 1333 1331 1329 1327 1325 1323 1321 1320 1319 1319 1318 1317 1317 1316 1315 1314 1313 1312 1312 1311 1311 1311 1311 1311 1311 1311 1312 1312 1313 1313 1314 1314 1315 1315 1315 1315 1315 1316 1316 1317 1317 1318 1319 1319 1320 1321 1322 1323 1324 1324 1325 1326 1327 1327 1328 1328 1329 1330 1330 1331 1332 1333 1333 1334 1335 1336 1337 1338 1339 1340 1340 1341 1342